Year,Month,Day,Hour,Minute,Value (Times are PST for temperature in C)
2020,08,16,00,00,15.70
2020,08,16,00,01,15.70
2020,08,16,00,02,15.70
2020,08,16,00,03,15.70
2020,08,16,00,04,15.70
2020,08,16,00,05,15.70
2020,08,16,00,06,15.70
2020,08,16,00,07,15.70
2020,08,16,00,08,15.70
2020,08,16,00,09,15.70
2020,08,16,00,10,15.70
2020,08,16,00,11,15.70
2020,08,16,00,12,15.70
2020,08,16,00,13,15.70
2020,08,16,00,14,15.70
2020,08,16,00,15,15.70
2020,08,16,00,16,15.70
2020,08,16,00,17,15.70
2020,08,16,00,18,15.60
2020,08,16,00,19,15.60
2020,08,16,00,20,15.60
2020,08,16,00,21,15.60
2020,08,16,00,22,15.60
2020,08,16,00,23,15.60
2020,08,16,00,24,15.60
2020,08,16,00,25,15.50
2020,08,16,00,26,15.50
2020,08,16,00,27,15.50
2020,08,16,00,28,15.50
2020,08,16,00,29,15.50
2020,08,16,00,30,15.50
2020,08,16,00,31,15.50
2020,08,16,00,32,15.50
2020,08,16,00,33,15.50
2020,08,16,00,34,15.50
2020,08,16,00,35,15.50
2020,08,16,00,36,15.50
2020,08,16,00,37,15.50
2020,08,16,00,38,15.50
2020,08,16,00,39,15.50
2020,08,16,00,40,15.50
2020,08,16,00,41,15.50
2020,08,16,00,42,15.50
2020,08,16,00,43,15.50
2020,08,16,00,44,15.50
2020,08,16,00,45,15.50
2020,08,16,00,46,15.40
2020,08,16,00,47,15.40
2020,08,16,00,48,15.40
2020,08,16,00,49,15.40
2020,08,16,00,50,15.40
2020,08,16,00,51,15.40
2020,08,16,00,52,15.40
2020,08,16,00,53,15.40
2020,08,16,00,54,15.40
2020,08,16,00,55,15.40
2020,08,16,00,56,15.40
2020,08,16,00,57,15.40
2020,08,16,00,58,15.40
2020,08,16,00,59,15.40
2020,08,16,01,00,15.50
2020,08,16,01,01,15.50
2020,08,16,01,02,15.50
2020,08,16,01,03,15.50
2020,08,16,01,04,15.50
2020,08,16,01,05,15.50
2020,08,16,01,06,15.50
2020,08,16,01,07,15.50
2020,08,16,01,08,15.50
2020,08,16,01,09,15.50
2020,08,16,01,10,15.50
2020,08,16,01,11,15.50
2020,08,16,01,12,15.50
2020,08,16,01,13,15.50
2020,08,16,01,14,15.50
2020,08,16,01,15,15.40
2020,08,16,01,16,15.40
2020,08,16,01,17,15.40
2020,08,16,01,18,15.40
2020,08,16,01,19,15.40
2020,08,16,01,20,15.30
2020,08,16,01,21,15.30
2020,08,16,01,22,15.30
2020,08,16,01,23,15.30
2020,08,16,01,24,15.30
2020,08,16,01,25,15.30
2020,08,16,01,26,15.30
2020,08,16,01,27,15.30
2020,08,16,01,28,15.30
2020,08,16,01,29,15.30
2020,08,16,01,30,15.30
2020,08,16,01,31,15.30
2020,08,16,01,32,15.30
2020,08,16,01,33,15.30
2020,08,16,01,34,15.30
2020,08,16,01,35,15.20
2020,08,16,01,36,15.20
2020,08,16,01,37,15.20
2020,08,16,01,38,15.20
2020,08,16,01,39,15.20
2020,08,16,01,40,15.20
2020,08,16,01,41,15.20
2020,08,16,01,42,15.20
2020,08,16,01,43,15.20
2020,08,16,01,44,15.20
2020,08,16,01,45,15.20
2020,08,16,01,46,15.20
2020,08,16,01,47,15.20
2020,08,16,01,48,15.20
2020,08,16,01,49,15.20
2020,08,16,01,50,15.10
2020,08,16,01,51,15.10
2020,08,16,01,52,15.10
2020,08,16,01,53,15.20
2020,08,16,01,54,15.20
2020,08,16,01,55,15.20
2020,08,16,01,56,15.20
2020,08,16,01,57,15.20
2020,08,16,01,58,15.20
2020,08,16,01,59,15.10
2020,08,16,02,00,15.10
2020,08,16,02,01,15.10
2020,08,16,02,02,15.10
2020,08,16,02,03,15.10
2020,08,16,02,04,15.20
2020,08,16,02,05,15.20
2020,08,16,02,06,15.20
2020,08,16,02,07,15.20
2020,08,16,02,08,15.20
2020,08,16,02,09,15.20
2020,08,16,02,10,15.20
2020,08,16,02,11,15.20
2020,08,16,02,12,15.20
2020,08,16,02,13,15.20
2020,08,16,02,14,15.20
2020,08,16,02,15,15.20
2020,08,16,02,16,15.10
2020,08,16,02,17,15.10
2020,08,16,02,18,15.10
2020,08,16,02,19,15.00
2020,08,16,02,20,15.00
2020,08,16,02,21,15.00
2020,08,16,02,22,14.90
2020,08,16,02,23,14.90
2020,08,16,02,24,14.90
2020,08,16,02,25,14.90
2020,08,16,02,26,14.90
2020,08,16,02,27,14.80
2020,08,16,02,28,14.80
2020,08,16,02,29,14.80
2020,08,16,02,30,14.80
2020,08,16,02,31,14.80
2020,08,16,02,32,14.80
2020,08,16,02,33,14.70
2020,08,16,02,34,14.70
2020,08,16,02,35,14.70
2020,08,16,02,36,14.70
2020,08,16,02,37,14.70
2020,08,16,02,38,14.70
2020,08,16,02,39,14.70
2020,08,16,02,40,14.70
2020,08,16,02,41,14.70
2020,08,16,02,42,14.70
2020,08,16,02,43,14.70
2020,08,16,02,44,14.60
2020,08,16,02,45,14.60
2020,08,16,02,46,14.60
2020,08,16,02,47,14.60
2020,08,16,02,48,14.60
2020,08,16,02,49,14.60
2020,08,16,02,50,14.60
2020,08,16,02,51,14.60
2020,08,16,02,52,14.60
2020,08,16,02,53,14.60
2020,08,16,02,54,14.60
2020,08,16,02,55,14.60
2020,08,16,02,56,14.60
2020,08,16,02,57,14.50
2020,08,16,02,58,14.50
2020,08,16,02,59,14.50
2020,08,16,03,00,14.50
2020,08,16,03,01,14.50
2020,08,16,03,02,14.50
2020,08,16,03,03,14.50
2020,08,16,03,04,14.50
2020,08,16,03,05,14.50
2020,08,16,03,06,14.50
2020,08,16,03,07,14.50
2020,08,16,03,08,14.50
2020,08,16,03,09,14.40
2020,08,16,03,10,14.40
2020,08,16,03,11,14.40
2020,08,16,03,12,14.40
2020,08,16,03,13,14.40
2020,08,16,03,14,14.40
2020,08,16,03,15,14.40
2020,08,16,03,16,14.40
2020,08,16,03,17,14.40
2020,08,16,03,18,14.40
2020,08,16,03,19,14.40
2020,08,16,03,20,14.40
2020,08,16,03,21,14.40
2020,08,16,03,22,14.40
2020,08,16,03,23,14.40
2020,08,16,03,24,14.30
2020,08,16,03,25,14.30
2020,08,16,03,26,14.30
2020,08,16,03,27,14.30
2020,08,16,03,28,14.30
2020,08,16,03,29,14.30
2020,08,16,03,30,14.30
2020,08,16,03,31,14.30
2020,08,16,03,32,14.30
2020,08,16,03,33,14.30
2020,08,16,03,34,14.30
2020,08,16,03,35,14.30
2020,08,16,03,36,14.30
2020,08,16,03,37,14.30
2020,08,16,03,38,14.30
2020,08,16,03,39,14.30
2020,08,16,03,40,14.30
2020,08,16,03,41,14.30
2020,08,16,03,42,14.30
2020,08,16,03,43,14.30
2020,08,16,03,44,14.30
2020,08,16,03,45,14.30
2020,08,16,03,46,14.30
2020,08,16,03,47,14.30
2020,08,16,03,48,14.30
2020,08,16,03,49,14.30
2020,08,16,03,50,14.30
2020,08,16,03,51,14.30
2020,08,16,03,52,14.30
2020,08,16,03,53,14.30
2020,08,16,03,54,14.30
2020,08,16,03,55,14.30
2020,08,16,03,56,14.30
2020,08,16,03,57,14.30
2020,08,16,03,58,14.30
2020,08,16,03,59,14.30
2020,08,16,04,00,14.30
2020,08,16,04,01,14.30
2020,08,16,04,02,14.30
2020,08,16,04,03,14.30
2020,08,16,04,04,14.30
2020,08,16,04,05,14.30
2020,08,16,04,06,14.30
2020,08,16,04,07,14.30
2020,08,16,04,08,14.30
2020,08,16,04,09,14.30
2020,08,16,04,10,14.30
2020,08,16,04,11,14.20
2020,08,16,04,12,14.20
2020,08,16,04,13,14.20
2020,08,16,04,14,14.20
2020,08,16,04,15,14.20
2020,08,16,04,16,14.10
2020,08,16,04,17,14.10
2020,08,16,04,18,14.10
2020,08,16,04,19,14.10
2020,08,16,04,20,14.10
2020,08,16,04,21,14.00
2020,08,16,04,22,14.00
2020,08,16,04,23,14.00
2020,08,16,04,24,14.00
2020,08,16,04,25,14.00
2020,08,16,04,26,14.00
2020,08,16,04,27,14.00
2020,08,16,04,28,13.90
2020,08,16,04,29,13.90
2020,08,16,04,30,13.90
2020,08,16,04,31,13.90
2020,08,16,04,32,13.90
2020,08,16,04,33,13.90
2020,08,16,04,34,13.90
2020,08,16,04,35,13.90
2020,08,16,04,36,13.90
2020,08,16,04,37,13.90
2020,08,16,04,38,13.90
2020,08,16,04,39,13.90
2020,08,16,04,40,13.90
2020,08,16,04,41,13.80
2020,08,16,04,42,13.80
2020,08,16,04,43,13.80
2020,08,16,04,44,13.80
2020,08,16,04,45,13.80
2020,08,16,04,46,13.80
2020,08,16,04,47,13.70
2020,08,16,04,48,13.70
2020,08,16,04,49,13.70
2020,08,16,04,50,13.70
2020,08,16,04,51,13.70
2020,08,16,04,52,13.70
2020,08,16,04,53,13.70
2020,08,16,04,54,13.70
2020,08,16,04,55,13.70
2020,08,16,04,56,13.70
2020,08,16,04,57,13.70
2020,08,16,04,58,13.70
2020,08,16,04,59,13.80
2020,08,16,05,00,13.80
2020,08,16,05,01,13.80
2020,08,16,05,02,13.80
2020,08,16,05,03,13.80
2020,08,16,05,04,13.80
2020,08,16,05,05,13.90
2020,08,16,05,06,13.90
2020,08,16,05,07,13.90
2020,08,16,05,08,13.90
2020,08,16,05,09,14.00
2020,08,16,05,10,14.00
2020,08,16,05,11,14.00
2020,08,16,05,12,14.10
2020,08,16,05,13,14.10
2020,08,16,05,14,14.10
2020,08,16,05,15,14.10
2020,08,16,05,16,14.00
2020,08,16,05,17,14.00
2020,08,16,05,18,14.00
2020,08,16,05,19,13.90
2020,08,16,05,20,13.90
2020,08,16,05,21,13.90
2020,08,16,05,22,13.90
2020,08,16,05,23,13.90
2020,08,16,05,24,13.90
2020,08,16,05,25,13.90
2020,08,16,05,26,13.90
2020,08,16,05,27,13.90
2020,08,16,05,28,13.90
2020,08,16,05,29,13.90
2020,08,16,05,30,13.90
2020,08,16,05,31,13.80
2020,08,16,05,32,13.80
2020,08,16,05,33,13.80
2020,08,16,05,34,13.80
2020,08,16,05,35,13.80
2020,08,16,05,36,13.80
2020,08,16,05,37,13.80
2020,08,16,05,38,13.80
2020,08,16,05,39,13.80
2020,08,16,05,40,13.80
2020,08,16,05,41,13.80
2020,08,16,05,42,13.80
2020,08,16,05,43,13.80
2020,08,16,05,44,13.80
2020,08,16,05,45,13.80
2020,08,16,05,46,13.80
2020,08,16,05,47,13.80
2020,08,16,05,48,13.80
2020,08,16,05,49,13.80
2020,08,16,05,50,13.80
2020,08,16,05,51,13.80
2020,08,16,05,52,13.80
2020,08,16,05,53,13.80
2020,08,16,05,54,13.80
2020,08,16,05,55,13.70
2020,08,16,05,56,13.70
2020,08,16,05,57,13.70
2020,08,16,05,58,13.70
2020,08,16,05,59,13.60
2020,08,16,06,00,13.60
2020,08,16,06,01,13.60
2020,08,16,06,02,13.60
2020,08,16,06,03,13.60
2020,08,16,06,04,13.60
2020,08,16,06,05,13.60
2020,08,16,06,06,13.60
2020,08,16,06,07,13.60
2020,08,16,06,08,13.50
2020,08,16,06,09,13.50
2020,08,16,06,10,13.50
2020,08,16,06,11,13.50
2020,08,16,06,12,13.40
2020,08,16,06,13,13.40
2020,08,16,06,14,13.40
2020,08,16,06,15,13.40
2020,08,16,06,16,13.40
2020,08,16,06,17,13.40
2020,08,16,06,18,13.40
2020,08,16,06,19,13.40
2020,08,16,06,20,13.30
2020,08,16,06,21,13.30
2020,08,16,06,22,13.30
2020,08,16,06,23,13.30
2020,08,16,06,24,13.30
2020,08,16,06,25,13.40
2020,08,16,06,26,13.40
2020,08,16,06,27,13.40
2020,08,16,06,28,13.40
2020,08,16,06,29,13.40
2020,08,16,06,30,13.40
2020,08,16,06,31,13.40
2020,08,16,06,32,13.50
2020,08,16,06,33,13.50
2020,08,16,06,34,13.50
2020,08,16,06,35,13.60
2020,08,16,06,36,13.60
2020,08,16,06,37,13.50
2020,08,16,06,38,13.60
2020,08,16,06,39,13.60
2020,08,16,06,40,13.60
2020,08,16,06,41,13.50
2020,08,16,06,42,13.50
2020,08,16,06,43,13.50
2020,08,16,06,44,13.50
2020,08,16,06,45,13.50
2020,08,16,06,46,13.50
2020,08,16,06,47,13.50
2020,08,16,06,48,13.50
2020,08,16,06,49,13.50
2020,08,16,06,50,13.50
2020,08,16,06,51,13.60
2020,08,16,06,52,13.60
2020,08,16,06,53,13.60
2020,08,16,06,54,13.60
2020,08,16,06,55,13.60
2020,08,16,06,56,13.60
2020,08,16,06,57,13.60
2020,08,16,06,58,13.70
2020,08,16,06,59,13.70
2020,08,16,07,00,13.70
2020,08,16,07,01,13.70
2020,08,16,07,02,13.70
2020,08,16,07,03,13.70
2020,08,16,07,04,13.70
2020,08,16,07,05,13.70
2020,08,16,07,06,13.70
2020,08,16,07,07,13.70
2020,08,16,07,08,13.70
2020,08,16,07,09,13.70
2020,08,16,07,10,13.70
2020,08,16,07,11,13.70
2020,08,16,07,12,13.70
2020,08,16,07,13,13.70
2020,08,16,07,14,13.70
2020,08,16,07,15,13.80
2020,08,16,07,16,13.80
2020,08,16,07,17,13.80
2020,08,16,07,18,13.80
2020,08,16,07,19,13.80
2020,08,16,07,20,13.80
2020,08,16,07,21,13.80
2020,08,16,07,22,13.90
2020,08,16,07,23,13.90
2020,08,16,07,24,13.90
2020,08,16,07,25,13.90
2020,08,16,07,26,13.90
2020,08,16,07,27,13.90
2020,08,16,07,28,14.00
2020,08,16,07,29,14.00
2020,08,16,07,30,14.00
2020,08,16,07,31,14.00
2020,08,16,07,32,14.10
2020,08,16,07,33,14.10
2020,08,16,07,34,14.10
2020,08,16,07,35,14.10
2020,08,16,07,36,14.10
2020,08,16,07,37,14.10
2020,08,16,07,38,14.10
2020,08,16,07,39,14.10
2020,08,16,07,40,14.10
2020,08,16,07,41,14.10
2020,08,16,07,42,14.10
2020,08,16,07,43,14.20
2020,08,16,07,44,14.20
2020,08,16,07,45,14.20
2020,08,16,07,46,14.20
2020,08,16,07,47,14.30
2020,08,16,07,48,14.30
2020,08,16,07,49,14.30
2020,08,16,07,50,14.30
2020,08,16,07,51,14.30
2020,08,16,07,52,14.40
2020,08,16,07,53,14.40
2020,08,16,07,54,14.40
2020,08,16,07,55,14.50
2020,08,16,07,56,14.50
2020,08,16,07,57,14.60
2020,08,16,07,58,14.60
2020,08,16,07,59,14.60
2020,08,16,08,00,14.60
2020,08,16,08,01,14.60
2020,08,16,08,02,14.60
2020,08,16,08,03,14.70
2020,08,16,08,04,14.70
2020,08,16,08,05,14.70
2020,08,16,08,06,14.70
2020,08,16,08,07,14.70
2020,08,16,08,08,14.80
2020,08,16,08,09,14.80
2020,08,16,08,10,14.80
2020,08,16,08,11,14.80
2020,08,16,08,12,14.80
2020,08,16,08,13,14.90
2020,08,16,08,14,14.90
2020,08,16,08,15,15.00
2020,08,16,08,16,15.00
2020,08,16,08,17,15.10
2020,08,16,08,18,15.20
2020,08,16,08,19,15.20
2020,08,16,08,20,15.30
2020,08,16,08,21,15.40
2020,08,16,08,22,15.40
2020,08,16,08,23,15.40
2020,08,16,08,24,15.40
2020,08,16,08,25,15.40
2020,08,16,08,26,15.50
2020,08,16,08,27,15.50
2020,08,16,08,28,15.60
2020,08,16,08,29,15.60
2020,08,16,08,30,15.70
2020,08,16,08,31,15.80
2020,08,16,08,32,15.80
2020,08,16,08,33,15.90
2020,08,16,08,34,16.00
2020,08,16,08,35,16.00
2020,08,16,08,36,16.10
2020,08,16,08,37,16.20
2020,08,16,08,38,16.30
2020,08,16,08,39,16.30
2020,08,16,08,40,16.50
2020,08,16,08,41,16.60
2020,08,16,08,42,16.70
2020,08,16,08,43,16.70
2020,08,16,08,44,16.80
2020,08,16,08,45,16.90
2020,08,16,08,46,16.90
2020,08,16,08,47,17.00
2020,08,16,08,48,17.00
2020,08,16,08,49,17.10
2020,08,16,08,50,17.20
2020,08,16,08,51,17.20
2020,08,16,08,52,17.30
2020,08,16,08,53,17.30
2020,08,16,08,54,17.40
2020,08,16,08,55,17.40
2020,08,16,08,56,17.50
2020,08,16,08,57,17.60
2020,08,16,08,58,17.60
2020,08,16,08,59,17.70
2020,08,16,09,00,17.80
2020,08,16,09,01,17.90
2020,08,16,09,02,18.00
2020,08,16,09,03,18.10
2020,08,16,09,04,18.20
2020,08,16,09,05,18.30
2020,08,16,09,06,18.40
2020,08,16,09,07,18.40
2020,08,16,09,08,18.40
2020,08,16,09,09,18.50
2020,08,16,09,10,18.50
2020,08,16,09,11,18.60
2020,08,16,09,12,18.60
2020,08,16,09,13,18.60
2020,08,16,09,14,18.70
2020,08,16,09,15,18.70
2020,08,16,09,16,18.70
2020,08,16,09,17,18.80
2020,08,16,09,18,18.80
2020,08,16,09,19,18.80
2020,08,16,09,20,18.90
2020,08,16,09,21,18.90
2020,08,16,09,22,18.90
2020,08,16,09,23,19.00
2020,08,16,09,24,19.00
2020,08,16,09,25,19.10
2020,08,16,09,26,19.10
2020,08,16,09,27,19.20
2020,08,16,09,28,19.30
2020,08,16,09,29,19.30
2020,08,16,09,30,19.40
2020,08,16,09,31,19.40
2020,08,16,09,32,19.50
2020,08,16,09,33,19.50
2020,08,16,09,34,19.60
2020,08,16,09,35,19.70
2020,08,16,09,36,19.80
2020,08,16,09,37,19.80
2020,08,16,09,38,19.80
2020,08,16,09,39,19.80
2020,08,16,09,40,19.80
2020,08,16,09,41,19.80
2020,08,16,09,42,19.80
2020,08,16,09,43,19.90
2020,08,16,09,44,19.90
2020,08,16,09,45,20.00
2020,08,16,09,46,20.10
2020,08,16,09,47,20.10
2020,08,16,09,48,20.20
2020,08,16,09,49,20.20
2020,08,16,09,50,20.20
2020,08,16,09,51,20.20
2020,08,16,09,52,20.30
2020,08,16,09,53,20.30
2020,08,16,09,54,20.40
2020,08,16,09,55,20.40
2020,08,16,09,56,20.40
2020,08,16,09,57,20.40
2020,08,16,09,58,20.30
2020,08,16,09,59,20.20
2020,08,16,10,00,20.10
2020,08,16,10,01,20.00
2020,08,16,10,02,19.90
2020,08,16,10,03,19.80
2020,08,16,10,04,19.70
2020,08,16,10,05,19.60
2020,08,16,10,06,19.50
2020,08,16,10,07,19.50
2020,08,16,10,08,19.40
2020,08,16,10,09,19.40
2020,08,16,10,10,19.30
2020,08,16,10,11,19.30
2020,08,16,10,12,19.30
2020,08,16,10,13,19.30
2020,08,16,10,14,19.30
2020,08,16,10,15,19.30
2020,08,16,10,16,19.30
2020,08,16,10,17,19.30
2020,08,16,10,18,19.30
2020,08,16,10,19,19.30
2020,08,16,10,20,19.40
2020,08,16,10,21,19.40
2020,08,16,10,22,19.50
2020,08,16,10,23,19.60
2020,08,16,10,24,19.70
2020,08,16,10,25,19.80
2020,08,16,10,26,19.80
2020,08,16,10,27,19.90
2020,08,16,10,28,19.90
2020,08,16,10,29,20.00
2020,08,16,10,30,20.10
2020,08,16,10,31,20.10
2020,08,16,10,32,20.10
2020,08,16,10,33,20.10
2020,08,16,10,34,20.10
2020,08,16,10,35,20.10
2020,08,16,10,36,20.10
2020,08,16,10,37,20.10
2020,08,16,10,38,20.20
2020,08,16,10,39,20.20
2020,08,16,10,40,20.30
2020,08,16,10,41,20.30
2020,08,16,10,42,20.30
2020,08,16,10,43,20.40
2020,08,16,10,44,20.40
2020,08,16,10,45,20.50
2020,08,16,10,46,20.60
2020,08,16,10,47,20.70
2020,08,16,10,48,20.80
2020,08,16,10,49,20.80
2020,08,16,10,50,20.80
2020,08,16,10,51,20.80
2020,08,16,10,52,20.80
2020,08,16,10,53,20.90
2020,08,16,10,54,20.90
2020,08,16,10,55,20.90
2020,08,16,10,56,20.90
2020,08,16,10,57,20.90
2020,08,16,10,58,20.90
2020,08,16,10,59,20.90
2020,08,16,11,00,20.90
2020,08,16,11,01,21.00
2020,08,16,11,02,21.00
2020,08,16,11,03,21.10
2020,08,16,11,04,21.10
2020,08,16,11,05,21.10
2020,08,16,11,06,21.20
2020,08,16,11,07,21.30
2020,08,16,11,08,21.30
2020,08,16,11,09,21.40
2020,08,16,11,10,21.50
2020,08,16,11,11,21.50
2020,08,16,11,12,21.60
2020,08,16,11,13,21.70
2020,08,16,11,14,21.70
2020,08,16,11,15,21.80
2020,08,16,11,16,21.90
2020,08,16,11,17,21.90
2020,08,16,11,18,22.00
2020,08,16,11,19,22.10
2020,08,16,11,20,22.10
2020,08,16,11,21,22.20
2020,08,16,11,22,22.20
2020,08,16,11,23,22.20
2020,08,16,11,24,22.20
2020,08,16,11,25,22.30
2020,08,16,11,26,22.30
2020,08,16,11,27,22.30
2020,08,16,11,28,22.30
2020,08,16,11,29,22.30
2020,08,16,11,30,22.30
2020,08,16,11,31,22.30
2020,08,16,11,32,22.30
2020,08,16,11,33,22.30
2020,08,16,11,34,22.30
2020,08,16,11,35,22.30
2020,08,16,11,36,22.20
2020,08,16,11,37,22.20
2020,08,16,11,38,22.20
2020,08,16,11,39,22.20
2020,08,16,11,40,22.10
2020,08,16,11,41,22.20
2020,08,16,11,42,22.20
2020,08,16,11,43,22.20
2020,08,16,11,44,22.20
2020,08,16,11,45,22.20
2020,08,16,11,46,22.20
2020,08,16,11,47,22.20
2020,08,16,11,48,22.20
2020,08,16,11,49,22.30
2020,08,16,11,50,22.30
2020,08,16,11,51,22.40
2020,08,16,11,52,22.50
2020,08,16,11,53,22.50
2020,08,16,11,54,22.60
2020,08,16,11,55,22.70
2020,08,16,11,56,22.80
2020,08,16,11,57,22.80
2020,08,16,11,58,22.90
2020,08,16,11,59,23.00
2020,08,16,12,00,23.10
2020,08,16,12,01,23.10
2020,08,16,12,02,23.20
2020,08,16,12,03,23.30
2020,08,16,12,04,23.30
2020,08,16,12,05,23.40
2020,08,16,12,06,23.50
2020,08,16,12,07,23.50
2020,08,16,12,08,23.60
2020,08,16,12,09,23.60
2020,08,16,12,10,23.60
2020,08,16,12,11,23.70
2020,08,16,12,12,23.70
2020,08,16,12,13,23.80
2020,08,16,12,14,23.80
2020,08,16,12,15,23.80
2020,08,16,12,16,23.90
2020,08,16,12,17,23.90
2020,08,16,12,18,23.90
2020,08,16,12,19,23.90
2020,08,16,12,20,23.90
2020,08,16,12,21,23.90
2020,08,16,12,22,23.90
2020,08,16,12,23,23.80
2020,08,16,12,24,23.80
2020,08,16,12,25,23.90
2020,08,16,12,26,23.90
2020,08,16,12,27,23.90
2020,08,16,12,28,23.90
2020,08,16,12,29,24.00
2020,08,16,12,30,24.00
2020,08,16,12,31,24.10
2020,08,16,12,32,24.10
2020,08,16,12,33,24.20
2020,08,16,12,34,24.20
2020,08,16,12,35,24.20
2020,08,16,12,36,24.20
2020,08,16,12,37,24.30
2020,08,16,12,38,24.30
2020,08,16,12,39,24.30
2020,08,16,12,40,24.30
2020,08,16,12,41,24.40
2020,08,16,12,42,24.50
2020,08,16,12,43,24.60
2020,08,16,12,44,24.70
2020,08,16,12,45,24.80
2020,08,16,12,46,24.80
2020,08,16,12,47,24.80
2020,08,16,12,48,24.90
2020,08,16,12,49,24.90
2020,08,16,12,50,24.90
2020,08,16,12,51,24.90
2020,08,16,12,52,24.90
2020,08,16,12,53,24.80
2020,08,16,12,54,24.80
2020,08,16,12,55,24.90
2020,08,16,12,56,24.90
2020,08,16,12,57,25.00
2020,08,16,12,58,25.10
2020,08,16,12,59,25.20
2020,08,16,13,00,25.20
2020,08,16,13,01,25.20
2020,08,16,13,02,25.20
2020,08,16,13,03,25.20
2020,08,16,13,04,25.20
2020,08,16,13,05,25.10
2020,08,16,13,06,25.00
2020,08,16,13,07,25.00
2020,08,16,13,08,24.90
2020,08,16,13,09,24.90
2020,08,16,13,10,24.90
2020,08,16,13,11,25.00
2020,08,16,13,12,25.10
2020,08,16,13,13,25.10
2020,08,16,13,14,25.20
2020,08,16,13,15,25.20
2020,08,16,13,16,25.30
2020,08,16,13,17,25.30
2020,08,16,13,18,25.40
2020,08,16,13,19,25.40
2020,08,16,13,20,25.30
2020,08,16,13,21,25.30
2020,08,16,13,22,25.30
2020,08,16,13,23,25.20
2020,08,16,13,24,25.20
2020,08,16,13,25,25.20
2020,08,16,13,26,25.20
2020,08,16,13,27,25.10
2020,08,16,13,28,25.10
2020,08,16,13,29,25.00
2020,08,16,13,30,25.00
2020,08,16,13,31,24.90
2020,08,16,13,32,25.00
2020,08,16,13,33,25.00
2020,08,16,13,34,25.00
2020,08,16,13,35,25.00
2020,08,16,13,36,25.00
2020,08,16,13,37,25.00
2020,08,16,13,38,25.10
2020,08,16,13,39,25.10
2020,08,16,13,40,25.10
2020,08,16,13,41,25.20
2020,08,16,13,42,25.20
2020,08,16,13,43,25.30
2020,08,16,13,44,25.30
2020,08,16,13,45,25.40
2020,08,16,13,46,25.50
2020,08,16,13,47,25.60
2020,08,16,13,48,25.80
2020,08,16,13,49,25.90
2020,08,16,13,50,26.00
2020,08,16,13,51,26.00
2020,08,16,13,52,26.00
2020,08,16,13,53,26.00
2020,08,16,13,54,26.00
2020,08,16,13,55,25.90
2020,08,16,13,56,25.90
2020,08,16,13,57,26.00
2020,08,16,13,58,26.00
2020,08,16,13,59,26.00
2020,08,16,14,00,26.00
2020,08,16,14,01,26.10
2020,08,16,14,02,26.10
2020,08,16,14,03,26.10
2020,08,16,14,04,26.10
2020,08,16,14,05,26.10
2020,08,16,14,06,26.10
2020,08,16,14,07,26.10
2020,08,16,14,08,26.20
2020,08,16,14,09,26.30
2020,08,16,14,10,26.30
2020,08,16,14,11,26.40
2020,08,16,14,12,26.40
2020,08,16,14,13,26.50
2020,08,16,14,14,26.60
2020,08,16,14,15,26.70
2020,08,16,14,16,26.80
2020,08,16,14,17,26.90
2020,08,16,14,18,27.00
2020,08,16,14,19,27.10
2020,08,16,14,20,27.10
2020,08,16,14,21,27.20
2020,08,16,14,22,27.30
2020,08,16,14,23,27.30
2020,08,16,14,24,27.40
2020,08,16,14,25,27.40
2020,08,16,14,26,27.40
2020,08,16,14,27,27.40
2020,08,16,14,28,27.30
2020,08,16,14,29,27.30
2020,08,16,14,30,27.30
2020,08,16,14,31,27.30
2020,08,16,14,32,27.30
2020,08,16,14,33,27.40
2020,08,16,14,34,27.40
2020,08,16,14,35,27.30
2020,08,16,14,36,27.30
2020,08,16,14,37,27.40
2020,08,16,14,38,27.40
2020,08,16,14,39,27.40
2020,08,16,14,40,27.50
2020,08,16,14,41,27.60
2020,08,16,14,42,27.80
2020,08,16,14,43,27.80
2020,08,16,14,44,27.90
2020,08,16,14,45,27.90
2020,08,16,14,46,28.00
2020,08,16,14,47,28.10
2020,08,16,14,48,28.20
2020,08,16,14,49,28.20
2020,08,16,14,50,28.30
2020,08,16,14,51,28.40
2020,08,16,14,52,28.40
2020,08,16,14,53,28.40
2020,08,16,14,54,28.40
2020,08,16,14,55,28.50
2020,08,16,14,56,28.60
2020,08,16,14,57,28.60
2020,08,16,14,58,28.60
2020,08,16,14,59,28.70
2020,08,16,15,00,28.70
2020,08,16,15,01,28.70
2020,08,16,15,02,28.70
2020,08,16,15,03,28.70
2020,08,16,15,04,28.70
2020,08,16,15,05,28.70
2020,08,16,15,06,28.60
2020,08,16,15,07,28.60
2020,08,16,15,08,28.60
2020,08,16,15,09,28.60
2020,08,16,15,10,28.60
2020,08,16,15,11,28.60
2020,08,16,15,12,28.60
2020,08,16,15,13,28.70
2020,08,16,15,14,28.70
2020,08,16,15,15,28.80
2020,08,16,15,16,28.80
2020,08,16,15,17,28.80
2020,08,16,15,18,28.90
2020,08,16,15,19,28.90
2020,08,16,15,20,29.00
2020,08,16,15,21,29.00
2020,08,16,15,22,29.00
2020,08,16,15,23,29.10
2020,08,16,15,24,29.10
2020,08,16,15,25,29.10
2020,08,16,15,26,29.10
2020,08,16,15,27,29.10
2020,08,16,15,28,29.20
2020,08,16,15,29,29.20
2020,08,16,15,30,29.30
2020,08,16,15,31,29.30
2020,08,16,15,32,29.40
2020,08,16,15,33,29.40
2020,08,16,15,34,29.50
2020,08,16,15,35,29.60
2020,08,16,15,36,29.70
2020,08,16,15,37,29.70
2020,08,16,15,38,29.70
2020,08,16,15,39,29.60
2020,08,16,15,40,29.60
2020,08,16,15,41,29.60
2020,08,16,15,42,29.60
2020,08,16,15,43,29.60
2020,08,16,15,44,29.60
2020,08,16,15,45,29.70
2020,08,16,15,46,29.70
2020,08,16,15,47,29.80
2020,08,16,15,48,29.80
2020,08,16,15,49,29.80
2020,08,16,15,50,29.90
2020,08,16,15,51,29.90
2020,08,16,15,52,30.00
2020,08,16,15,53,30.00
2020,08,16,15,54,30.10
2020,08,16,15,55,30.10
2020,08,16,15,56,30.10
2020,08,16,15,57,30.10
2020,08,16,15,58,30.10
2020,08,16,15,59,30.20
2020,08,16,16,00,30.20
2020,08,16,16,01,30.20
2020,08,16,16,02,30.10
2020,08,16,16,03,30.10
2020,08,16,16,04,30.10
2020,08,16,16,05,30.10
2020,08,16,16,06,30.20
2020,08,16,16,07,30.20
2020,08,16,16,08,30.30
2020,08,16,16,09,30.30
2020,08,16,16,10,30.40
2020,08,16,16,11,30.40
2020,08,16,16,12,30.30
2020,08,16,16,13,30.30
2020,08,16,16,14,30.30
2020,08,16,16,15,30.30
2020,08,16,16,16,30.30
2020,08,16,16,17,30.30
2020,08,16,16,18,30.40
2020,08,16,16,19,30.40
2020,08,16,16,20,30.40
2020,08,16,16,21,30.40
2020,08,16,16,22,30.40
2020,08,16,16,23,30.30
2020,08,16,16,24,30.20
2020,08,16,16,25,30.10
2020,08,16,16,26,30.10
2020,08,16,16,27,30.10
2020,08,16,16,28,30.10
2020,08,16,16,29,30.10
2020,08,16,16,30,30.10
2020,08,16,16,31,30.10
2020,08,16,16,32,30.10
2020,08,16,16,33,30.20
2020,08,16,16,34,30.20
2020,08,16,16,35,30.20
2020,08,16,16,36,30.30
2020,08,16,16,37,30.30
2020,08,16,16,38,30.40
2020,08,16,16,39,30.40
2020,08,16,16,40,30.50
2020,08,16,16,41,30.60
2020,08,16,16,42,30.60
2020,08,16,16,43,30.70
2020,08,16,16,44,30.70
2020,08,16,16,45,30.60
2020,08,16,16,46,30.60
2020,08,16,16,47,30.60
2020,08,16,16,48,30.60
2020,08,16,16,49,30.60
2020,08,16,16,50,30.60
2020,08,16,16,51,30.50
2020,08,16,16,52,30.50
2020,08,16,16,53,30.40
2020,08,16,16,54,30.40
2020,08,16,16,55,30.40
2020,08,16,16,56,30.30
2020,08,16,16,57,30.30
2020,08,16,16,58,30.30
2020,08,16,16,59,30.40
2020,08,16,17,00,30.50
2020,08,16,17,01,30.60
2020,08,16,17,02,30.60
2020,08,16,17,03,30.70
2020,08,16,17,04,30.80
2020,08,16,17,05,30.80
2020,08,16,17,06,30.90
2020,08,16,17,07,30.90
2020,08,16,17,08,30.90
2020,08,16,17,09,30.90
2020,08,16,17,10,30.80
2020,08,16,17,11,30.80
2020,08,16,17,12,30.70
2020,08,16,17,13,30.70
2020,08,16,17,14,30.70
2020,08,16,17,15,30.60
2020,08,16,17,16,30.60
2020,08,16,17,17,30.60
2020,08,16,17,18,30.60
2020,08,16,17,19,30.50